| time (UTC) | temp F | wind direction | speed knots | gust knots | rain 1hr in | rain 24hr in | rain mn in | humidity % | barometer mb |
| 20260505041558 | 59 | 0 | 0.0 | 5.2 | 0.00 | 0.00 | 0.00 | 53 | 1010.5 |
| 20260505040100 | 59 | 0 | 0.0 | 1.7 | 0.00 | 0.00 | 0.00 | 53 | 1010.4 |
| 20260505034553 | 59 | 0 | 0.0 | 0.0 | 0.00 | 0.00 | 0.00 | 53 | 1010.4 |
| 20260505033055 | 59 | 0 | 0.0 | 2.6 | 0.00 | 0.00 | 0.00 | 53 | 1010.4 |
| 20260505031601 | 59 | 0 | 0.0 | 0.0 | 0.00 | 0.00 | 0.00 | 53 | 1010.4 |
| 20260505030056 | 58 | 0 | 0.0 | 0.0 | 0.00 | 0.00 | 0.00 | 55 | 1010.3 |
| 20260505024607 | 58 | 0 | 0.0 | 0.0 | 0.00 | 0.00 | 0.00 | 56 | 1010.5 |
| 20260505023054 | 58 | 0 | 0.0 | 0.0 | 0.00 | 0.00 | 0.00 | 56 | 1010.7 |
| 20260505021609 | 59 | 0 | 0.0 | 0.0 | 0.00 | 0.00 | 0.00 | 54 | 1010.7 |
| 20260505020055 | 60 | 0 | 0.0 | 0.0 | 0.00 | 0.00 | 0.00 | 51 | 1010.7 |
| 20260505014555 | 59 | 0 | 0.0 | 0.0 | 0.00 | 0.00 | 0.00 | 51 | 1010.6 |
| 20260505013058 | 60 | 0 | 0.0 | 0.0 | 0.00 | 0.00 | 0.00 | 50 | 1010.5 |
| 20260505011558 | 61 | 0 | 0.0 | 0.0 | 0.00 | 0.00 | 0.00 | 48 | 1010.4 |
| 20260505010057 | 62 | 0 | 0.0 | 0.0 | 0.00 | 0.00 | 0.00 | 45 | 1010.2 |
| 20260505004557 | 63 | 0 | 0.0 | 0.0 | 0.00 | 0.00 | 0.00 | 43 | 1010.0 |
| 20260505003054 | 65 | 0 | 0.0 | 0.0 | 0.00 | 0.00 | 0.00 | 40 | 1010.0 |
| 20260505001557 | 66 | 0 | 0.0 | 0.0 | 0.00 | 0.00 | 0.00 | 39 | 1009.9 |
| 20260505000059 | 67 | 0 | 0.0 | 4.3 | 0.00 | 0.00 | 0.00 | 37 | 1009.7 |
| 20260504234555 | 67 | 0 | 0.0 | 7.8 | 0.00 | 0.00 | 0.00 | 37 | 1009.8 |
| 20260504233102 | 68 | 0 | 0.0 | 7.0 | 0.00 | 0.00 | 0.00 | 35 | 1009.6 |
| 20260504231556 | 69 | 200 | 2.6 | 11.3 | 0.00 | 0.00 | 0.00 | 33 | 1009.5 |
| 20260504230058 | 69 | 0 | 0.9 | 9.6 | 0.00 | 0.00 | 0.00 | 33 | 1009.5 |
| 20260504224554 | 69 | 0 | 0.0 | 8.7 | 0.00 | 0.00 | 0.00 | 35 | 1009.4 |
| 20260504223102 | 70 | 0 | 1.7 | 10.4 | 0.00 | 0.00 | 0.00 | 33 | 1009.4 |
| 20260504221606 | 70 | 0 | 1.7 | 10.4 | 0.00 | 0.00 | 0.00 | 33 | 1009.6 |
| 20260504220136 | 72 | 198 | 0.9 | 7.0 | 0.00 | 0.00 | 0.00 | 32 | 1009.7 |
| 20260504214558 | 72 | 0 | 0.9 | 12.2 | 0.00 | 0.00 | 0.00 | 34 | 1009.6 |
| 20260504213126 | 72 | 0 | 3.5 | 11.3 | 0.00 | 0.00 | 0.00 | 31 | 1009.6 |
| 20260504211558 | 72 | 211 | 0.0 | 11.3 | 0.00 | 0.00 | 0.00 | 32 | 1009.6 |
| 20260504210101 | 73 | 173 | 0.9 | 9.6 | 0.00 | 0.00 | 0.00 | 31 | 1009.6 |
| 20260504204603 | 73 | 250 | 0.9 | 7.8 | 0.00 | 0.00 | 0.00 | 30 | 1009.8 |
| 20260504203053 | 72 | 207 | 2.6 | 12.2 | 0.00 | 0.00 | 0.00 | 31 | 1009.9 |
| 20260504201554 | 72 | 259 | 5.2 | 13.0 | 0.00 | 0.00 | 0.00 | 32 | 1010.0 |
| 20260504200110 | 72 | 213 | 3.5 | 11.3 | 0.00 | 0.00 | 0.00 | 31 | 1010.1 |
| 20260504194549 | 72 | 273 | 1.7 | 13.0 | 0.00 | 0.00 | 0.00 | 31 | 1010.2 |
| 20260504193051 | 72 | 225 | 1.7 | 13.0 | 0.00 | 0.00 | 0.00 | 31 | 1010.2 |
| 20260504191559 | 72 | 128 | 0.0 | 8.7 | 0.00 | 0.00 | 0.00 | 31 | 1010.2 |
| 20260504190054 | 71 | 242 | 3.5 | 11.3 | 0.00 | 0.00 | 0.00 | 34 | 1010.4 |
| 20260504184600 | 71 | 225 | 1.7 | 12.2 | 0.00 | 0.00 | 0.00 | 29 | 1010.7 |
| 20260504183051 | 71 | 242 | 3.5 | 10.4 | 0.00 | 0.00 | 0.00 | 30 | 1011.0 |
| 20260504181553 | 70 | 0 | 1.7 | 11.3 | 0.00 | 0.00 | 0.00 | 35 | 1011.0 |
| 20260504180055 | 69 | 202 | 3.5 | 11.3 | 0.00 | 0.00 | 0.00 | 33 | 1011.4 |
| 20260504174556 | 70 | 0 | 3.5 | 10.4 | 0.00 | 0.00 | 0.00 | 34 | 1011.6 |
| 20260504173100 | 69 | 208 | 2.6 | 11.3 | 0.00 | 0.00 | 0.00 | 34 | 1011.8 |
| 20260504171556 | 68 | 268 | 1.7 | 13.0 | 0.00 | 0.00 | 0.00 | 37 | 1012.0 |
| 20260504160106 | 66 | 212 | 2.6 | 9.6 | 0.00 | 0.00 | 0.00 | 36 | 1013.0 |
| 20260504081552 | 40 | 0 | 0.0 | 0.0 | 0.00 | 0.00 | 0.00 | 75 | 1014.4 |
| 20260504044554 | 43 | 0 | 0.0 | 0.0 | 0.00 | 0.00 | 0.00 | 63 | 1014.3 |
| 20260504043058 | 43 | 0 | 0.0 | 0.0 | 0.00 | 0.00 | 0.00 | 62 | 1014.2 |